Regional Weather Roundup
Issued by NWS

Home | Current Version | Previous Version | Graphics & Text | Print | Product List | Glossary On
Versions: 1 2 3 4 5 6 7 8 9 10 11 12 13 14 15 16 17 18 19 20 21 22 23 24 25 26 27 28 29 30 31 32 33 34 35 36 37 38 39 40 41 42 43 44 45 46 47 48 49 50
000
ASUS45 KBOI 270510
RWRID
WEATHER ROUNDUP FOR IDAHO
NATIONAL WEATHER SERVICE BOISE ID
1100 PM MDT SUN APR 26 2015

NOTE: "FAIR" INDICATES FEW OR NO CLOUDS BELOW 12000 FEET
WITH NO SIGNIFICANT WEATHER AND/OR OBSTRUCTIONS TO VISIBILITY

IDZ012-014-270600-
SOUTHWEST IDAHO


CITY           SKY/WX    TMP DP  RH WIND       PRES   REMARKS
BOISE          CLEAR     49  23  36 W3        30.20R
CALDWELL       CLEAR     48  25  40 NW6       30.22R
MOUNTAIN HOME  CLEAR     44  19  37 NW10      30.19R
$$

IDZ016-017-270600-
SOUTHCENTRAL IDAHO


CITY           SKY/WX    TMP DP  RH WIND       PRES   REMARKS
BURLEY         MOCLDY    42  20  41 SW10      30.17R
JEROME         CLEAR     42  18  37 SW10      30.17R
TWIN FALLS     CLEAR     42  15  33 S15       30.18R
$$

IDZ019>023-270600-
SOUTHEAST IDAHO


CITY           SKY/WX    TMP DP  RH WIND       PRES   REMARKS
IDAHO FALLS    CLOUDY    41  37  86 NW6       30.18R
POCATELLO      CLOUDY    49  35  58 CALM      30.17R
REXBURG        CLOUDY    42  39  89 N3        30.17R
$$

IDZ006-010-011-018-031-032-270600-
CENTRAL IDAHO MOUNTAINS


CITY           SKY/WX    TMP DP  RH WIND       PRES   REMARKS
MCCALL         CLEAR     37  24  59 N8        30.25R WCI  31
HAILEY         PTCLDY    45  27  49 NW8       30.19R
STANLEY          N/A     27  18  69 CALM      30.24R
SALMON         CLOUDY    45  30  57 E5        30.25R
CHALLIS        CLOUDY    41  25  53 NE5       30.24R
$$

IDZ002-004-006-007-026-270600-
NORTHERN IDAHO


CITY           SKY/WX    TMP DP  RH WIND       PRES   REMARKS
LEWISTON       CLEAR     48  27  44 S7        30.26R
LOWELL           N/A     42  37  82 CALM      30.32R
COEUR D`ALENE  CLEAR     45  19  36 CALM      30.26R
MULLAN PASS    CLEAR     32  19  58 VRB5      30.24R WCI  27
$$


USA.gov is the U.S. government's official web portal to all federal, state and local government web resources and services.